Flag for India Weather past 2 weeks in Jaipur, Rajasthan, India

Now
79 °F

Passing clouds.


Feels Like: 81 °F
Forecast: 75 / 95 °F
Wind: 7 mph from South

Location: Jaipur / Sanganer

Current Time: Apr 1, 2015 at 10:48:29 AM

Latest Report: Apr 1, 2015 at 9:00 AM


Visibility: 1 mi

Pressure: 29.89 "Hg

Humidity: 61%

Dew point: 64 °F

Location of JaipurLocation

Historic Weather in Jaipur — Graph

°F

Jaipur temperature yesterday

Maximum temperature yesterday: 88 °F (at 3:00 PM)
Minimum temperature yesterday: 68 °F (at 5:30 AM)
Average temperature yesterday: 80 °F

Past Weeks' High & Low Weather Summary

 TemperatureHumidityPressure
High99 °F (Mar 25, 4:00 PM)88% (Mar 18, 7:00 AM)30.15 "Hg (Mar 18, 7:00 AM)
Low61 °F (Mar 18, 6:00 AM)17% (Mar 24, 3:30 PM)29.71 "Hg (Mar 30, 5:00 PM)
Average81 °F42%29.95 "Hg
* Reported Mar 17 8:30 AM — Apr 1 9:00 AM, Jaipur, Weather by CustomWeather, © 2015

Note: Actual official high and low records may vary slightly from our data, if they occured in-between our weather recording intervals... More about our weather records

Advertising

Jaipur weather history for previous 24 hours

 ConditionsComfort  
Time TempWeatherWind HumidityBarometerVisibility
9:00 AM
Wed, Apr 1
79 °FPassing clouds.7 mph61%29.89 "Hg1 mi
8:00 AM75 °FPassing clouds.6 mph69%29.89 "Hg1 mi
6:00 AM72 °FFog.5 mph78%29.86 "Hg1 mi
5:00 AM73 °FHaze.3 mph69%29.83 "Hg1 mi
4:00 AM72 °FHaze.3 mph69%29.83 "Hg1 mi
3:00 AM72 °FHaze.6 mph69%29.83 "Hg1 mi
2:00 AM73 °FHaze.5 mph65%29.86 "Hg1 mi
1:00 AM75 °FHaze.5 mph61%29.86 "Hg1 mi
12:00 AM75 °FHaze.5 mph61%29.86 "Hg1 mi
11:00 PM
Tue, Mar 31
75 °FHaze.5 mph69%29.89 "Hg1 mi
10:00 PM77 °FHaze.6 mph65%29.89 "Hg2 mi
8:00 PM81 °FPassing clouds.12 mph58%29.86 "Hg2 mi
7:00 PM86 °FScattered clouds.2 mph29%29.83 "Hg2 mi
6:00 PM88 °FScattered clouds.2 mph29%29.83 "Hg2 mi
5:00 PM88 °FScattered clouds.2 mph31%29.83 "Hg2 mi
4:00 PM88 °FScattered clouds.7 mph33%29.83 "Hg2 mi
3:00 PM88 °FScattered clouds.6 mph35%29.83 "Hg2 mi
2:00 PM86 °FScattered clouds.1 mph38%29.86 "Hg2 mi
1:00 PM84 °FScattered clouds.5 mph45%29.89 "Hg2 mi
12:00 PM82 °FHaze.5 mph58%29.92 "Hg2 mi
10:00 AM75 °FClear.3 mph74%29.95 "Hg1 mi
Weather by CustomWeather, © 2015

See weather overviewHow to use our weather pages